#timestamp,LO_Frequency,Hit,StdDev 
1592380815.2,286046998.9,N
1592380835.9,286046999.6,N
1592380855.7,286046999.0,N
1592380875.6,286046999.4,N
1592380895.4,286046999.6,N
1592380915.3,286046998.9,N
1592380935.1,286046998.8,N
1592380936.0,286046998.8,N
1592380955.8,286046998.5,N
1592380975.7,286046998.7,N
1592380995.5,286046998.1,N
1592381015.4,286047001.2,N
1592381035.2,286046998.9,N
1592381055.0,286046998.6,N
1592381055.9,286046998.6,N
1592381075.8,286046998.8,N
1592381095.6,286047000.7,N
1592381115.4,286047000.6,N
1592381135.3,286046998.2,N
1592381155.1,286046998.2,N
1592381175.9,286046998.1,N
1592381195.7,286047000.7,N
1592381215.5,286046998.6,N
1592381235.4,286047001.0,N
1592381255.2,286046998.3,N
1592381275.0,286046998.5,N
1592381276.0,286046998.5,N
1592381295.8,286046998.4,N
1592381315.6,286047000.7,N
1592381335.5,286047000.4,N
1592381355.3,286047000.6,N
1592381375.1,286047000.7,N
1592381395.9,286047000.0,N
1592381415.7,286047000.2,N
1592381435.6,286046998.4,N
1592381455.4,286047001.1,N
1592381475.2,286047001.1,N
1592381495.1,286047000.8,N
1592381496.0,286047000.8,N
1592381515.8,286047000.9,N
1592381535.7,286047000.8,N
1592381555.5,286047000.5,N
1592381575.3,286047000.3,N
1592381595.2,286047001.2,N
1592381615.0,286047000.6,N
1592381615.9,286047000.6,N
1592381635.7,286047000.4,N
1592381655.6,286047000.4,N
1592381675.4,286047002.7,N
1592381695.3,286047000.6,N
1592381715.1,286047000.8,N
1592381735.8,286047000.0,N
1592381755.7,286046998.1,N
1592381775.5,286046998.2,N
1592381795.4,286047000.8,N
1592381815.2,286046998.1,N
1592381835.0,286047000.5,N
1592381835.9,286047000.5,N
1592381855.8,286047002.7,N
1592381875.6,286046999.9,N
1592381895.5,286047002.8,N
1592381915.3,286047000.5,N
1592381935.1,286047000.1,N
1592381955.9,286047000.1,N
1592381975.7,286047002.7,N
1592381995.6,286047002.3,N
1592382015.4,286047000.0,N
1592382035.2,286046999.8,N
1592382055.1,286047001.0,N
1592382056.0,286047001.0,N
1592382075.8,286047001.1,N
1592382095.7,286047000.9,N
1592382115.5,286047000.9,N
1592382135.3,286046998.2,N
1592382155.2,286047000.0,N
1592382175.0,286047000.4,N
1592382195.1,286047002.8,N
1592382215.9,286047002.0,N
1592382235.7,286047002.1,N
1592382255.5,286047000.3,N
1592382275.4,286047001.1,N
1592382295.2,286047002.4,N
1592382315.0,286047002.1,N
1592382315.9,286047002.1,N
1592382335.8,286047002.7,N
1592382355.6,286047002.7,N
1592382375.5,286047000.3,N
1592382395.3,286047001.0,N
1592382415.1,286047000.4,N
1592382435.9,286046999.8,N
1592382455.7,286047000.1,N
1592382475.6,286047000.4,N
1592382495.4,286047000.3,N
1592382515.2,286047002.4,N
1592382535.1,286046999.7,N
1592382536.0,286046999.7,N
1592382555.8,286047002.4,N
1592382575.6,286047002.2,N
1592382595.5,286047002.4,N
1592382615.3,286047002.8,N
1592382635.2,286047002.8,N
1592382655.9,286046999.8,N
1592382675.7,286047000.2,N
1592382695.6,286047002.2,N
1592382715.4,286047000.5,N
1592382735.3,286047000.3,N
1592382755.1,286047000.5,N
1592382756.0,286047000.5,N
1592382775.8,286047000.2,N
1592382795.7,286047002.4,N
1592382815.5,286047002.3,N
1592382835.3,286046999.7,N
1592382855.2,286047002.1,N
1592382875.0,286047001.9,N
1592382875.9,286047001.9,N
1592382895.8,286047001.7,N
1592382915.6,286047002.2,N
1592382935.4,286047001.6,N
1592382955.3,286047000.1,N
1592382975.1,286047002.2,N
1592382995.9,286047001.3,N
1592383015.7,286047005.9,Y
1592383035.6,286047002.4,P
1592383055.4,286047002.0,P
1592383075.2,286047005.3,P
1592383095.1,286047003.8,N
1592383096.0,286047003.8,N
1592383115.8,286047000.3,N
1592383135.6,286047000.3,N
1592383155.5,286047000.8,N
1592383175.3,286047000.1,N
1592383195.2,286047002.4,N
1592383215.9,286047002.1,N
1592383235.7,286047001.9,N
1592383255.6,286047001.6,N
1592383275.4,286047000.9,N
1592383295.2,286047002.1,N
1592383315.1,286047004.8,Y
1592383316.0,286047004.8,P
1592383335.8,286047002.9,N
1592383355.7,286047003.2,N
1592383375.5,286047005.0,Y
1592383395.3,286047002.4,P
1592383415.2,286046998.8,P
1592383435.0,286046997.4,N
1592383435.9,286046997.4,N
1592383455.8,286046997.6,N
1592383475.6,286046997.6,N
1592383495.4,286046996.1,N
1592383515.3,286046995.3,N
1592383535.1,286046994.9,N
1592383555.9,286046996.0,N
1592383575.7,286046993.3,N
1592383595.5,286046993.4,N
1592383615.4,286046991.7,N
1592383635.2,286046991.8,N
1592383655.0,286046992.6,N
1592383656.0,286046992.6,N
1592383675.8,286046991.7,N
1592383695.6,286046992.5,N
1592383715.5,286046994.7,N
1592383735.3,286046992.3,N
1592383755.1,286046993.1,N
1592383775.9,286046992.8,N
1592383795.7,286046992.9,N
1592383815.6,286046994.0,N
1592383835.4,286046996.4,N
1592383855.2,286046994.2,N
1592383875.1,286046994.4,N
1592383876.0,286046994.4,N
1592383895.8,286046993.4,N
1592383915.7,286046996.2,N
1592383935.5,286046995.7,N
1592383955.3,286046993.5,Y
1592383975.2,286046998.7,P
1592383995.0,286046998.7,N
1592383995.9,286046998.7,N
1592384015.8,286047000.7,N
1592384035.6,286047000.5,N
1592384055.4,286047000.0,N
1592384075.3,286047000.7,N
1592384095.1,286046999.8,N
1592384115.9,286047001.0,N
1592384135.7,286047000.9,N
1592384155.5,286047001.2,N
1592384175.4,286047000.9,N
1592384195.2,286047001.0,N
1592384215.0,286047001.2,N
1592384215.9,286047001.2,N
1592384235.8,286047000.6,N
1592384255.6,286046998.1,N
1592384275.5,286046998.2,N
1592384295.3,286047000.7,N
1592384315.1,286046998.3,N
1592384335.9,286046997.0,N
1592384355.7,286046998.1,N
1592384375.6,286046998.3,N
1592384395.4,286046999.5,N
